{"data":{"norad_id":25160,"epoch":"2026-09-19T05:14:54.931776Z","epoch_age_seconds":122867,"freshness":"FRESH","line1":"1 25160U 98007D   26262.21869134 -.00000039  00000+0  40139-4 0  9993","line2":"2 25160 108.0051 162.2088 0062996 331.1445 180.1387 14.22506121483884","mean_motion":14.22506121,"eccentricity":0.0062996,"inclination_deg":108.0051,"raan_deg":162.2088,"arg_perigee_deg":331.1445,"mean_anomaly_deg":180.1387,"bstar":4.0139e-5,"rev_number":48388,"period_min":101.22979288045,"perigee_km":771.56394614181,"apogee_km":862.21552700123,"semimajor_km":7195.0267365715,"source":"CELESTRAK","updated_at":"2026-09-20T09:00:13.526374Z"}}